SB KEPS @ AMSAT $ORB13192.N 2Line Orbital Elements 13192.AMSAT
HR AMSAT ORBITAL ELEMENTS FOR AMATEUR SATELLITES IN NASA FORMAT FROM WA5QGD FORT WORTH,TX July 11, 2013 BID: ORB13192.N
DECODE 2-LINE ELSETS WITH THE FOLLOWING KEY: 1 AAAAAU 00 0 0 BBBBB.BBBBBBBB .CCCCCCCC 00000-0 00000-0 0 DDDZ 2 AAAAA EEE.EEEE FFF.FFFF GGGGGGG HHH.HHHH III.IIII JJ.JJJJJJJJKKKKKZ KEY: A-CATALOGNUM B-EPOCHTIME C-DECAY D-ELSETNUM E-INCLINATION F-RAAN G-ECCENTRICITY H-ARGPERIGEE I-MNANOM J-MNMOTION K-ORBITNUM Z-CHECKSUM
TO ALL RADIO AMATEURS BT
AO-07 1 07530U 74089B 13192.04585311 -.00000024 00000-0 12111-3 0 7259 2 07530 101.4323 180.6865 0011441 240.4438 162.1875 12.53596926768774 FO-29 1 24278U 96046B 13191.81261819 -.00000030 00000-0 21179-5 0 1518 2 24278 098.5537 247.2164 0351622 102.9654 008.0755 13.53003567834502 SO-33 1 25509U 98061B 13192.63978500 .00000095 00000-0 79996-5 0 5365 2 25509 031.4315 289.1733 0351007 011.9979 089.9601 14.29097445768396 RS-22 1 27939U 03042A 13192.77891430 .00000525 00000-0 10727-3 0 5767 2 27939 097.7986 019.3425 0014427 106.9773 253.3030 14.64503589522890 VO-52 1 28650U 05017B 13192.12359144 .00000572 00000-0 74520-4 0 4709 2 28650 097.5681 209.4983 0025753 198.2489 202.4899 14.83971980442630 HO-68 1 36122U 09072B 13192.75215355 -.00000044 00000-0 00000 0 0 7133 2 36122 100.3043 249.1822 0007262 300.0949 059.9444 13.16305317171641 UO-11 1 14781U 84021B 13191.28295723 .00000356 00000-0 52768-4 0 2268 2 14781 097.9012 252.2639 0008588 204.2465 155.8345 14.80940382577359 AO-16 1 20439U 90005D 13192.81337172 .00000057 00000-0 37021-4 0 7908 2 20439 098.4712 132.2700 0012181 087.8054 325.4197 14.32187634225763 LO-19 1 20442U 90005G 13192.09314575 .00000045 00000-0 32310-4 0 7244 2 20442 098.4405 133.2755 0013079 080.8276 041.3202 14.32397743225858 AO-27 1 22825U 93061C 13192.08487038 .00000035 00000-0 30859-4 0 4275 2 22825 098.6187 135.8583 0007929 210.5438 277.9277 14.29574670 32048 IO-26 1 22826U 93061D 13192.07984985 .00000048 00000-0 35723-4 0 1836 2 22826 098.6129 136.1352 0008587 203.8744 284.7950 14.29860078 32177 GO-32 1 25397U 98043D 13192.10461421 .00000026 00000-0 29943-4 0 1109 2 25397 098.4164 158.8242 0001158 164.1251 326.4699 14.23348698779342 NO-44 1 26931U 01043C 13192.79726520 .00000022 00000-0 40514-4 0 3696 2 26931 067.0505 196.0672 0007947 277.0581 135.4062 14.29939185614940 SO-50 1 27607U 02058C 13192.15201498 .00000204 00000-0 52580-4 0 1108 2 27607 064.5558 191.1784 0042185 156.2850 273.7071 14.72991123567245 CO-55 1 27844U 03031E 13192.77055072 .00000114 00000-0 72259-4 0 6904 2 27844 098.7011 201.4850 0010155 171.4875 240.6679 14.21239603520224 CO-57 1 27848U 03031J 13192.58297944 .00000099 00000-0 65793-4 0 6360 2 27848 098.7098 200.8252 0009968 177.7341 328.9318 14.20962897520125 AO-51 1 28375U 04025K 13191.85474481 .00000071 00000-0 34414-4 0 6010 2 28375 098.2026 146.3660 0082182 304.9069 107.2320 14.41137406474744 CP3 1 31129U 07012N 13192.50115647 .00000430 00000-0 10655-3 0 5006 2 31129 097.8990 183.7668 0099602 352.6145 152.9982 14.53721901330523 CO-65 1 32785U 08021C 13192.17909413 .00000552 00000-0 72594-4 0 6806 2 32785 097.7498 249.0290 0013602 223.1248 202.8335 14.83965582281433 PRISM 1 33493U 09002B 13192.79073823 .00002517 00000-0 29270-3 0 9749 2 33493 098.2194 350.5359 0019356 111.3134 249.0151 14.86158027241578 SOHLA-1 1 33496U 09002E 13192.85138880 .00000163 00000-0 35309-4 0 921 2 33496 098.1373 308.8084 0005668 233.9184 272.2562 14.70321525239497 SO-67 1 35870U 09049F 13192.74325006 .00004599 00000-0 17408-3 0 2272 2 35870 097.1897 220.6156 0001098 160.8209 310.7475 15.27407957212001 TISAT-1 1 36799U 10035E 13192.87365387 .00001610 00000-0 20244-3 0 2475 2 36799 098.0341 277.7110 0014304 354.4135 005.6906 14.83437203162238 STUDSAT 1 36801U 10035G 13190.84523463 .00005270 00000-0 56983-3 0 6519 2 36801 098.0455 279.0241 0010345 339.4533 132.8228 14.88699204162106 ALMASAT-1 1 38078U 12006B 13192.40591565 .00018774 00000-0 47445-3 0 4243 2 38078 069.4705 144.7627 0689274 116.1525 251.2184 14.25958452 72699 XATCOBEO 1 38082U 12006F 13192.90272541 .00060221 34892-5 11734-2 0 3136 2 38082 069.4704 115.9721 0559530 100.6169 326.3451 14.58902813 73521 SOMP 1 39135U 13015F 13192.74187207 .00003402 00000-0 28210-3 0 1765 2 39135 064.8769 131.4656 0010768 205.6744 154.3918 15.00434609 12511 CUBEBUG-1 1 39153U 13018D 13192.87178387 .00000922 00000-0 13954-3 0 2091 2 39153 098.0738 268.6197 0018698 009.3818 350.7711 14.76494560 11325 ESTCUBE-1 1 39161U 13021C 13192.75347785 .00000757 00000-0 13742-3 0 1776 2 39161 098.1272 270.8805 0010897 039.4869 320.7119 14.69012427 9609 NOAA-10 1 16969U 86073A 13192.15402125 .00000020 00000-0 25659-4 0 4214 2 16969 098.5446 219.4696 0012791 170.3854 233.7766 14.27650639395367 NOAA-11 1 19531U 88089A 13192.13868623 .00000029 00000-0 36998-4 0 4293 2 19531 098.7101 274.6071 0011407 187.5885 230.6086 14.15020954279519 NOAA-12 1 21263U 91032A 13192.11312726 .00000011 00000-0 23284-4 0 8936 2 21263 098.6963 217.3087 0014744 147.2096 262.5716 14.25575576151962 MET-3/5 1 21655U 91056A 13192.78746393 -.00000020 00000-0 -83554-4 0 7343 2 21655 082.5540 236.9129 0014421 071.7485 288.5205 13.17046859 53171 MET-2/21 1 22782U 93055A 13192.77994072 .00000004 00000-0 -97727-5 0 7860 2 22782 082.5485 083.4130 0023554 138.4623 283.3507 13.83710016 3045 OKEAN-4 1 23317U 94066A 13192.87814353 .00000526 00000-0 59231-4 0 2660 2 23317 082.5380 026.6820 0022371 142.2599 351.9627 14.84530900 12601 NOAA-14 1 23455U 94089A 13192.13189333 -.00000009 00000-0 18144-4 0 3778 2 23455 098.8022 276.2084 0008392 290.4744 128.0833 14.13912973955757 NOAA-15 1 25338U 98030A 13192.70724551 .00000223 00000-0 94631-4 0 7978 2 25338 098.7248 182.7761 0011612 058.8678 301.4116 14.25241125788349 RESURS 1 25394U 98043A 13192.87581684 -.00000028 00000-0 56959-5 0 4186 2 25394 098.3634 167.5333 0002136 142.1347 274.4604 14.24333062779873 FENGYUN1 1 25730U 99025A 13191.46140346 .00000402 00000-0 24939-3 0 9137 2 25730 098.8780 150.6874 0025194 346.9030 160.2281 14.10568584729321 OKEAN-0 1 25860U 99039A 13192.13323635 .00000242 00000-0 43825-4 0 9919 2 25860 097.9918 154.2641 0002115 094.7465 325.8029 14.74638222751880 NOAA-16 1 26536U 00055A 13192.13059539 .00000151 00000-0 10563-3 0 2788 2 26536 099.0410 245.1321 0011420 072.1163 341.3235 14.12893815659950 NOAA-17 1 27453U 02032A 13192.08862610 .00000047 00000-0 37797-4 0 1939 2 27453 098.3125 204.9024 0013043 096.8074 323.9664 14.24602540574127 NOAA-18 1 28654U 05018A 13192.11498481 .00000209 00000-0 13961-3 0 6802 2 28654 099.1012 160.6774 0015229 138.7710 351.9229 14.11836239419436 NOAA-19 1 33591U 09005A 13192.13647531 .00000059 00000-0 57189-4 0 8628 2 33591 098.9037 134.0135 0014106 007.4139 108.1005 14.11524377227878 HUBBLE 1 20580U 90037B 13192.23112869 .00001027 00000-0 60853-4 0 2799 2 20580 028.4703 115.1930 0002997 248.6784 238.9591 15.03752097 73328 ISS 1 25544U 98067A 13192.88402282 .00008716 00000-0 16176-3 0 1662 2 25544 051.6500 345.9257 0005542 170.9323 325.3318 15.49775381838537 CO-58 1 28895U 05043F 13192.11832615 .00000275 00000-0 64794-4 0 5193 2 28895 097.8682 046.2702 0017539 011.7241 348.4366 14.61159901410439 FALCON 1 30776U 07006E 13192.07562525 .00003701 00000-0 22009-3 0 6493 2 30776 035.4312 055.5750 0001424 210.8967 278.2379 15.10894473349033 MAST 1 31126U 07012K 13192.77519343 .00000263 00000-0 68437-4 0 7999 2 31126 097.8826 187.2943 0092259 336.8493 099.7620 14.54615438330899 CAPE1 1 31130U 07012P 13191.93350117 .00000423 00000-0 10533-3 0 8029 2 31130 097.8996 182.8625 0100036 355.3582 004.6678 14.53541723330227 COMPASS 1 32787U 08021E 13192.72187985 .00001080 00000-0 13069-3 0 6720 2 32787 097.7509 250.6490 0014219 217.3713 142.6515 14.85624695281604 AAUSAT2 1 32788U 08021F 13192.72280806 .00001008 00000-0 12101-3 0 6576 2 32788 097.7512 251.2989 0013537 216.7200 143.3089 14.86097096281643 DO-64 1 32789U 08021G 13192.17298765 .00003138 00000-0 34062-3 0 6856 2 32789 097.7665 254.6797 0013209 210.2856 206.3837 14.88789162281699 CO-66 1 32791U 08021J 13192.17307760 .00000750 00000-0 94585-4 0 6501 2 32791 097.7509 249.4464 0014490 220.7886 202.2943 14.84739348281436 RS-30 1 32953U 08025A 13192.68981598 .00000010 00000-0 00000 0 0 202 2 32953 082.5001 052.9546 0018153 176.1599 183.9623 12.43034876232958 METEOR-M 1 35865U 09049A 13192.71422920 -.00000003 00000-0 17896-4 0 6123 2 35865 098.6002 244.5342 0002968 021.0796 339.0495 14.21889571197958 RS-38 1 35869U 09049E 13192.67294154 .00000022 00000-0 29330-4 0 5695 2 35869 098.5941 244.4016 0005149 012.4117 347.7193 14.22136032197976 JUGNU 1 37839U 11058B 13190.35601542 .00000353 00000-0 46817-4 0 4193 2 37839 019.9605 172.4570 0018942 166.8648 311.1945 14.12165666 90035 SRMSAT 1 37841U 11058D 13190.70042824 .00000330 00000-0 36488-4 0 4218 2 37841 019.9709 182.8714 0011944 122.7901 217.4032 14.10234032 89952 RAX-2 1 37853U 11061D 13190.61960782 .00003454 00000-0 26548-3 0 5392 2 37853 101.7096 054.6542 0234315 323.2388 068.5202 14.83851461 91773 AUBIESAT 1 37854U 11061E 13190.57053933 .00003779 00000-0 28355-3 0 5342 2 37854 101.7132 055.4969 0234031 321.9421 096.0181 14.84594030 91785 HRBE 1 37855U 11061F 13190.57846561 .00003227 00000-0 24508-3 0 5377 2 37855 101.7134 055.2523 0235141 322.4256 087.7502 14.84244032 91774 RS-39 1 38051U 11062C 13192.76505435 .00012969 00000-0 40662-3 0 5947 2 38051 051.6359 091.8849 0010731 001.8014 054.9874 15.33345848 81553 E-STAR 1 38079U 12006C 13192.85275961 .00060654 00000-0 12336-2 0 2761 2 38079 069.4727 123.4248 0601137 104.4712 262.3385 14.48938212 73310 GOLIAT 1 38085U 12006J 13192.91181576 .00041913 00000-0 86787-3 0 2010 2 38085 069.4726 125.6504 0610381 105.4709 343.0477 14.46663820 73253 HORYU-2 1 38340U 12025D 13192.38752081 .00000853 00000-0 14731-3 0 5449 2 38340 098.2173 140.2517 0012513 170.9333 189.2103 14.71011937 61676 RS-40 1 38736U 12041D 13192.78561692 .00000010 00000-0 00000 0 0 3168 2 38736 082.4799 139.7906 0020045 275.1246 084.7545 12.42869071 43304 PROITERES 1 38756U 12047B 13192.88819619 .00000491 00000-0 82254-4 0 9279 2 38756 098.2528 270.3856 0013434 032.9889 327.2131 14.74263060 45034 RAIKO 1 38852U 98067CN 13192.72298513 .00289160 00000-0 88221-3 0 2778 2 38852 051.6376 320.1930 0004301 010.4264 349.7348 15.91185761 43772 FITSAT 1 1 38853U 98067CP 13184.86912902 .06638326 12312-4 50483-3 0 3153 2 38853 051.6252 351.6077 0011722 245.9321 114.2104 16.39337660 42708 TechEdSat 1 38854U 98067CQ 13124.93253577 .11592855 12481-4 94246-3 0 2908 2 38854 051.6449 297.0261 0010505 310.8629 049.0629 16.38844728 33294 F 1 1 38855U 98067CR 13129.77714356 .27424026 12535-4 30797-3 0 2871 2 38855 051.5085 272.4145 0008326 194.2908 166.5495 16.49710473 33949 WeWish 1 38856U 98067CS 13069.98095549 .16701328 12537-4 10063-2 0 2487 2 38856 051.6166 215.0521 0008325 316.0438 044.8765 16.41348316 24586 OSSI-1 1 39131U 13015B 13188.41684431 .01502874 74059-5 44818-3 0 85 2 39131 064.8841 114.8425 0051126 026.6892 350.0589 16.22925119 12374 BEESAT-3 1 39134U 13015E 13192.88684080 .00003636 00000-0 30011-3 0 2133 2 39134 064.8776 131.0002 0010742 204.1358 228.2479 15.00495534 12535 BEESAT-2 1 39136U 13015G 13192.30053117 .00003121 00000-0 25981-3 0 1928 2 39136 064.8775 132.8426 0010791 204.4036 298.1572 15.00446858 12440 /EX
participants (1)
-
Ray Hoad